Regional Weather Roundup
Issued by NWS

Home | Current Version | Previous Version | Text Only | Print | Product List | Glossary On
Versions: 1 2 3 4 5 6 7 8
000
ASPQ40 PGUM 052212
RWRPQ
WEATHER ROUNDUP FOR THE MARIANAS AND MICRONESIA
NATIONAL WEATHER SERVICE TIYAN GU
800 AM CHST TUE DEC 06 2016

GUZ001>004-052300-
MARIANA ISLANDS-

CITY           SKY/WX    TMP DP  RH WIND       PRES   REMARKS
GUAM AIRPORT   MOSUNNY   84  73  70 E13G24    29.92R HX  91
ANDERSEN AFB   MOSUNNY   81  72  74 E17       29.94R
ROTA AIRPORT   MOSUNNY   81  73  78 E13       29.93R
TINIAN AP      MOSUNNY   77  75  94 E10       29.92R
SAIPAN AP      NOT AVBL

$$

PMZ161-052300-
REPUBLIC OF PALAU-

CITY           SKY/WX    TMP DP  RH WIND       PRES   REMARKS
KOROR AP       NOT AVBL
KOROR WSO      CLOUDY    79  77  94 CALM      29.82R

$$

PMZ171>174-052300-
FEDERATED STATES OF MICRONESIA-

CITY           SKY/WX    TMP DP  RH WIND       PRES   REMARKS
YAP AIRPORT    CLOUDY    81  79  94 E10       29.80R
CHUUK AP       CLOUDY    82  79  89 E9        29.83R HX  93
POHNPEI AP     CLOUDY    81  77  89 E17       29.80
POHNPEI WSO    CLOUDY    81  75  83 NE12      29.85R
KOSRAE AP      CLOUDY    79  77  94 SE10      29.81R

$$

PMZ181-052300-
REPUBLIC OF THE MARSHALL ISLANDS-

CITY           SKY/WX    TMP DP  RH WIND       PRES   REMARKS
KWAJALEIN AP   SUNNY     86  72  62 E16       29.84R HX  92
MAJURO AP      NOT AVBL
MAJURO WSO     CLOUDY    86  72  62 NE14      29.80S HX  92

$$




USA.gov is the U.S. government's official web portal to all federal, state and local government web resources and services.